Regional Weather Roundup
Issued by NWS

Home | Current Version | Previous Version | Graphics & Text | Print | Product List | Glossary On
Versions: 1 2 3 4 5 6 7 8 9 10 11 12 13 14 15 16 17 18 19 20 21 22 23 24 25 26 27 28 29 30 31 32 33 34 35 36 37 38 39 40 41 42 43 44 45 46 47 48 49 50
000
ASUS43 KLSX 042010
RWRMO

WEATHER SUMMARY FOR MISSOURI
NATIONAL WEATHER SERVICE SPRINGFIELD MO
300 PM CDT WED MAY 04 2016

NOTE: "FAIR" INDICATES FEW OR NO CLOUDS BELOW 12,000 FEET WITH NO
       SIGNIFICANT WEATHER AND/OR OBSTRUCTIONS TO VISIBILITY.
       CURRENT SKY AND/OR WEATHER CONDITIONS ARE NOT AVAILABLE FOR
       CHILLICOTHE AND FARMINGTON.

MOZ001>031-035>038-043-044-053-054-042100-
...NORTHERN AND WESTERN MISSOURI...

CITY           SKY/WX    TMP DP  RH WIND       PRES   REMARKS
KANSAS CTY INT SUNNY     68  39  34 NW14G23   29.99S
KANSAS C DTWN  SUNNY     71  39  31 NW12G23   29.97S
LEE`S SUMMIT   SUNNY     69  39  33 N17G25    29.98S
ST JOSEPH      SUNNY     70  36  28 N17G29    30.00S
CHILLICOTHE      N/A     68  40  35 N10G23    29.96S
KIRKSVILLE     SUNNY     65  36  34 N17G28    29.94S

$$
MOZ066>068-077>081-088>096-101>105-042100-
...SOUTHWEST MISSOURI...

CITY           SKY/WX    TMP DP  RH WIND       PRES   REMARKS
SPRINGFIELD    SUNNY     71  39  31 NW21      29.92S
JOPLIN         SUNNY     71  39  31 N18G28    29.97S
BRANSON        SUNNY     72  37  28 NW21G28   29.91S

$$
MOZ032>034-039>042-045>050-055>058-069>072-042100-
...CENTRAL MISSOURI...

CITY           SKY/WX    TMP DP  RH WIND       PRES   REMARKS
COLUMBIA       MOSUNNY   68  36  30 N17G29    29.90S
JEFFERSON CITY PTSUNNY   69  36  29 NW13      29.89S
ROLLA          SUNNY     67  41  38 N18G25    29.87R
SEDALIA        SUNNY     70  38  31 N23G30    29.95S
WHITEMAN AFB   MOSUNNY   69  40  34 N15G29    29.94S
WARRENSBURG    SUNNY     68  34  28 NW16G25   29.95S
OSAGE BEACH    SUNNY     70  37  30 NW15G24   29.91S

$$
MOZ051-052-059>065-042100-
...EAST CENTRAL MISSOURI...

CITY           SKY/WX    TMP DP  RH WIND       PRES   REMARKS
ST LOUIS INTL  MOSUNNY   68  40  35 N16G26    29.84R
SPIRIT OF STL  MOSUNNY   68  39  34 NW18G26   29.83S
ST CHARLES     MOSUNNY   67  42  40 NW16G28   29.83S

$$
MOZ072>076-082>087-097>100-106>115-042100-
...SOUTH CENTRAL AND SOUTHEAST MISSOURI...

CITY           SKY/WX    TMP DP  RH WIND       PRES   REMARKS
CAPE GIRARDEAU MOSUNNY   71  38  29 N21G29    29.78S
FARMINGTON     PTSUNNY   67  40  37 N15G21    29.82S
POPLAR BLUFF   PTSUNNY   73  45  36 N18       29.78R
WEST PLAINS    SUNNY     73  40  30 N17G25    29.86S

$$



USA.gov is the U.S. government's official web portal to all federal, state and local government web resources and services.